Theta_e
352 354 354 355 357 357 356 357 358 360 361 361 361 361 361 360 362 362 364 364 358 348 344 339 338 341 334 325 330 327 326 327 320 315 317 319 319 317 316 318 316 319 320
356 358 357 357 356 355 356 357 359 359 360 360 360 360 359 361 363 364 365 359 354 344 340 342 340 335 326 328 322 324 322 322 316 316 318 316 318 318 316 316 315 314 317
354 353 355 357 357 357 357 358 359 358 358 358 359 360 362 365 365 366 363 353 345 343 344 345 342 330 326 322 321 319 318 318 318 315 314 316 316 315 312 316 316 315 315
351 352 354 354 355 355 357 358 358 360 359 360 362 363 365 366 366 368 356 351 343 342 348 348 335 328 324 322 321 321 321 319 319 316 314 313 313 314 311 310 311 312 311
353 352 354 356 356 357 357 358 359 360 361 363 363 364 366 367 368 361 353 343 343 345 340 329 324 322 321 322 319 322 322 318 317 316 313 312 310 307 306 310 310 307 311
351 352 354 355 355 356 358 358 360 361 362 363 363 364 366 367 333 336 343 338 342 336 328 325 324 320 319 320 318 319 323 322 320 316 313 311 311 308 308 309 308 304 305
353 351 354 355 354 356 357 358 358 359 362 362 364 366 368 363 328 329 331 337 335 331 326 323 318 319 322 322 320 321 319 318 317 320 316 312 312 312 310 308 307 309 306
350 351 353 354 354 357 357 358 360 361 362 364 366 368 367 343 324 322 326 334 332 328 326 324 322 323 323 322 323 321 321 322 321 318 318 317 316 313 311 310 310 315 309
350 352 354 355 355 357 357 359 362 362 364 365 367 367 355 334 318 317 327 329 328 326 325 324 323 322 315 316 323 321 320 320 314 313 312 311 312 311 309 309 308 310 310
351 353 356 357 357 357 360 361 363 364 366 364 366 363 338 333 314 315 323 328 326 324 325 323 319 321 313 314 323 321 319 320 321 321 315 314 313 313 314 313 310 307 307
354 356 357 359 361 361 362 363 364 365 366 364 357 350 345 332 320 313 315 329 326 324 324 323 321 312 308 308 312 322 319 321 317 318 311 311 312 310 309 309 310 308 306
356 357 358 360 359 360 362 363 365 363 358 353 345 341 338 332 317 311 312 318 321 327 324 322 322 308 305 304 312 306 309 315 318 311 309 310 308 307 308 309 312 311 308
355 357 359 360 360 361 361 362 359 357 353 345 342 338 334 329 323 308 307 310 314 324 321 316 307 302 302 307 306 306 310 317 314 310 309 309 310 310 311 311 313 315 313
353 355 356 357 357 361 360 360 356 354 351 346 344 339 333 326 320 317 315 315 310 316 311 313 313 313 313 313 313 314 317 316 314 311 309 310 311 309 307 308 307 310 311
355 355 355 354 355 359 360 356 356 359 351 350 349 344 334 328 321 315 317 318 317 313 316 317 318 318 317 317 317 317 317 315 312 312 310 309 309 308 306 308 307 308 309
360 360 358 359 359 357 346 345 311 318 320 313 320 337 341 320 306 302 300 300 301 303 315 316 317 317 317 316 316 316 316 314 313 312 310 310 309 308 306 307 308 307 308
361 361 359 353 352 347 348 349 342 320 303 306 310 311 313 313 300 297 296 297 299 303 315 316 317 317 317 317 316 315 315 315 317 312 310 310 310 309 307 306 307 306 306
364 329 362 358 353 351 350 351 347 342 341 331 307 311 300 298 297 295 295 300 307 308 315 316 317 318 318 317 317 316 316 315 313 311 311 311 311 309 307 307 307 307 307
361 358 359 357 354 348 351 351 347 346 345 337 318 308 300 294 294 294 298 316 312 312 315 316 318 318 318 318 318 318 318 316 314 312 311 310 311 310 308 307 306 302 305
354 337 344 359 354 352 353 351 347 345 338 331 328 330 312 305 304 302 312 319 315 315 316 317 318 319 319 319 320 320 318 316 316 314 312 311 311 310 308 308 308 307 307
339 352 337 356 355 355 354 350 352 348 337 331 332 326 310 323 314 311 313 318 315 316 317 318 318 318 320 320 320 320 318 317 317 315 312 310 311 309 310 309 309 308 308
334 337 352 353 353 352 351 351 350 347 344 337 334 317 303 325 327 316 313 319 318 320 320 320 319 319 318 318 319 318 317 317 317 315 312 310 311 311 310 309 308 308 308
333 335 338 346 350 337 346 347 346 345 342 340 336 320 316 324 322 320 314 317 321 320 321 321 320 319 320 320 320 320 317 317 317 317 313 311 310 310 310 309 309 308 308
328 329 332 336 339 345 346 344 343 328 341 339 332 325 320 326 322 322 318 318 321 322 322 321 321 319 321 321 320 321 320 319 320 318 316 313 311 308 311 310 309 309 308
321 324 325 326 329 334 341 343 341 340 339 338 329 322 318 323 322 324 325 321 322 323 322 322 320 321 322 321 320 320 311 295 316 309 318 315 314 313 312 311 311 310 309
314 316 316 316 319 323 331 333 340 340 339 337 333 327 320 321 321 323 324 322 323 321 319 319 319 320 321 322 320 309 293 292 305 299 317 316 314 313 312 312 312 310 309
Wind_Speed
16 16 16 14 14 13 12 12 12 11 10 10 8 9 10 10 10 8 6 4 4 4 4 2 1 3 3 3 2 4 4 4 3 3 4 4 5 9 9 9 7 5 2
15 14 15 14 13 13 13 13 12 11 9 10 8 10 10 9 8 6 6 2 3 5 4 4 5 5 5 4 5 8 7 6 5 5 5 6 5 10 11 10 8 6 6
15 16 14 13 13 13 13 12 11 11 10 9 8 8 8 7 6 4 1 4 4 5 5 6 8 7 5 6 7 7 7 6 6 5 6 6 7 9 11 10 8 7 4
16 15 15 15 15 14 13 12 11 10 9 9 8 8 7 6 4 1 5 6 7 7 7 8 8 7 7 9 9 8 6 7 6 6 6 7 9 11 10 11 9 9 6
15 15 16 15 14 12 12 11 10 9 8 9 8 7 6 5 3 5 7 8 9 10 10 10 9 9 9 8 7 7 6 6 6 7 7 8 9 12 13 12 10 9 5
16 16 14 13 13 13 12 11 10 9 9 8 8 6 5 4 11 11 11 9 10 11 12 12 11 12 13 14 12 13 9 8 8 7 8 9 11 11 12 11 9 7 8
15 14 14 13 13 12 12 11 11 10 9 8 7 5 5 3 12 13 13 10 11 11 12 10 9 9 11 11 10 11 13 13 10 6 7 8 9 11 12 13 12 9 7
15 14 14 13 13 11 11 11 9 9 9 7 7 6 5 7 13 15 14 11 11 12 10 9 10 10 8 8 7 7 8 7 6 6 6 7 8 9 10 9 11 7 5
16 15 14 14 12 11 11 10 9 8 7 7 6 7 8 9 13 15 12 11 11 12 10 9 9 9 8 5 7 7 6 6 6 5 3 3 6 8 10 10 12 11 8
15 15 13 13 12 12 11 10 9 8 7 6 7 8 10 12 10 13 11 10 11 9 9 8 4 8 8 3 6 5 7 5 3 5 7 8 9 7 6 11 10 11 11
14 13 13 13 13 11 9 8 9 8 7 8 8 8 11 12 10 11 11 10 9 9 8 7 7 7 9 5 4 5 6 6 4 3 5 7 9 9 9 11 12 11 11
13 13 12 12 9 9 11 9 9 9 10 8 9 7 8 10 9 8 10 8 10 10 9 7 8 8 10 7 4 8 8 5 4 4 5 8 9 9 8 9 12 12 11
11 11 11 11 10 9 10 10 9 10 8 8 8 8 8 8 7 8 9 13 8 9 8 9 13 9 11 7 9 7 6 4 4 4 5 7 7 7 5 6 8 8 11
10 10 9 10 10 9 8 9 9 10 10 9 9 9 9 8 8 7 8 8 11 9 12 10 8 7 5 10 8 4 5 4 4 4 5 5 6 8 7 8 9 8 9
9 9 9 8 10 9 8 6 8 10 11 12 11 12 13 11 10 12 13 11 10 10 11 9 8 8 8 7 6 6 5 5 5 4 4 5 6 8 8 8 9 9 10
9 8 7 7 8 6 6 5 13 3 10 5 8 12 11 6 21 18 15 16 16 17 10 9 9 9 8 8 8 7 5 5 4 4 4 4 6 7 8 8 9 10 10
7 7 7 6 6 6 6 7 6 6 11 10 11 7 9 21 19 21 16 17 21 13 9 9 9 9 9 8 8 8 7 5 5 4 4 4 4 5 6 8 8 9 10
6 5 6 6 6 6 6 6 6 6 7 5 10 4 11 18 22 19 21 15 10 8 9 10 9 10 10 9 9 8 8 7 6 5 4 4 4 4 6 7 8 9 9
5 4 5 4 5 5 5 5 5 6 6 6 6 8 10 14 10 24 24 13 14 12 10 10 9 10 10 9 8 8 9 8 7 6 5 5 5 4 6 7 9 9 8
7 5 1 5 5 6 5 6 5 5 6 6 6 8 11 8 9 10 11 12 11 11 10 10 10 9 10 10 9 9 9 9 8 7 6 6 5 5 6 6 7 9 9
8 4 3 1 2 3 4 4 5 7 8 8 8 9 16 16 14 13 12 11 12 12 11 11 10 10 10 10 9 9 10 10 10 8 7 7 7 7 6 6 6 8 9
8 8 4 2 1 4 4 4 6 6 8 8 9 8 15 7 12 14 11 13 10 11 11 11 10 11 10 11 11 11 11 11 11 10 9 9 8 8 7 7 6 6 7
9 9 8 7 5 3 3 4 4 5 6 8 8 7 10 10 10 12 14 11 12 11 10 11 11 11 11 10 11 11 12 12 12 12 12 10 9 8 8 7 7 7 6
8 9 9 8 7 5 4 4 5 6 6 7 7 8 10 12 11 14 13 12 11 13 11 12 11 15 12 11 11 12 11 11 11 13 15 12 11 9 9 8 8 7 6
9 9 9 9 9 7 5 5 5 6 7 8 8 8 9 10 9 10 12 12 12 13 14 12 10 14 16 18 16 18 14 13 15 14 13 15 14 15 10 9 9 8 9
9 10 9 9 9 9 8 9 4 6 7 7 8 8 9 11 9 11 12 13 12 12 13 10 12 15 17 17 19 18 13 13 12 15 14 13 13 13 12 12 14 9 11
Wind_Direction
203 205 207 211 213 216 227 235 241 251 250 258 265 272 271 277 282 289 297 301 240 195 151 114 319 78 73 66 63 40 41 25 78 101 40 39 8 1 354 349 339 310 304
199 196 202 207 211 212 221 232 239 246 250 258 262 263 271 277 286 296 304 254 196 178 162 183 117 108 98 69 69 58 63 57 75 61 22 14 0 355 349 343 347 340 334
196 198 200 203 205 211 215 226 233 243 250 258 251 258 271 281 296 300 52 143 132 135 150 139 113 113 93 78 74 85 83 72 66 49 29 20 356 2 343 358 358 348 360
195 199 201 203 206 210 212 220 224 234 245 251 253 259 268 282 286 306 133 133 112 113 119 100 110 111 115 101 95 98 91 81 64 40 25 14 4 2 354 357 354 15 4
189 198 204 204 207 211 210 213 218 224 232 245 256 257 262 263 256 150 136 126 122 110 99 100 96 103 102 95 111 92 86 61 44 32 19 14 10 359 2 351 356 351 34
189 200 200 199 203 207 208 207 210 213 223 233 243 247 248 248 128 132 135 125 130 120 109 103 111 113 97 93 86 62 55 61 49 19 21 11 13 2 358 354 357 9 12
189 196 197 195 200 206 205 202 209 209 212 219 229 224 226 100 130 125 124 133 129 120 118 123 122 111 114 111 102 97 77 66 54 35 26 15 8 4 350 356 3 356 20
190 193 192 193 197 201 200 202 203 209 206 208 209 204 157 124 129 121 119 126 120 115 121 121 123 127 123 124 111 89 75 68 51 46 33 16 14 7 4 359 346 352 139
188 191 189 191 189 191 199 198 196 202 196 198 195 168 144 136 135 131 129 128 120 118 116 123 130 131 134 137 109 96 86 84 94 72 44 26 1 17 5 2 11 13 18
187 188 184 182 185 192 193 188 187 195 193 184 169 159 138 141 149 137 137 135 131 126 126 125 125 135 141 157 106 109 93 86 66 28 29 42 36 48 38 29 13 15 16
181 175 176 181 185 188 178 177 178 178 171 171 155 139 145 148 159 145 136 144 142 143 139 149 147 142 128 114 97 84 86 116 106 63 35 28 25 35 39 37 31 31 21
172 167 173 182 185 173 175 172 174 168 171 151 130 121 132 144 139 153 143 125 147 143 145 145 133 142 127 138 127 110 119 129 102 75 37 32 23 28 45 49 56 55 50
168 167 169 171 176 173 177 170 167 173 164 151 152 146 145 142 144 106 111 121 114 132 139 112 112 129 124 108 108 128 162 95 96 77 48 42 22 29 44 59 66 62 69
171 168 167 170 173 177 179 172 171 177 173 166 162 155 152 151 150 156 145 129 109 114 119 126 110 111 93 109 137 149 92 90 91 75 63 45 37 31 43 39 46 49 53
168 165 164 171 180 173 183 187 188 197 186 173 173 166 163 170 179 172 162 161 159 144 138 143 149 145 145 143 136 125 117 125 111 101 78 54 44 38 44 43 48 56 54
149 152 152 156 170 161 157 139 36 28 145 106 162 174 177 153 151 155 146 136 130 150 155 161 162 163 164 156 150 139 132 119 111 112 93 62 45 37 49 51 62 58 56
123 132 134 144 143 152 166 170 154 38 53 99 135 140 154 153 150 143 141 141 146 156 170 173 174 172 168 164 158 155 147 124 128 124 110 88 66 57 56 63 62 63 64
87 94 139 148 154 160 176 182 162 169 172 145 53 71 130 151 146 143 130 128 159 203 185 182 179 178 172 172 166 154 141 149 137 133 135 112 83 75 73 76 71 69 67
99 113 110 122 146 146 161 166 160 166 182 148 119 85 88 78 139 148 157 164 175 188 191 187 184 181 175 175 168 156 153 161 150 151 145 134 121 108 87 81 85 71 70
11 9 102 141 147 168 172 181 163 155 152 152 164 169 149 126 162 170 189 172 179 187 191 189 184 185 179 176 172 161 157 157 158 165 157 149 138 131 117 104 94 88 86
346 326 344 300 162 174 165 195 221 199 179 171 179 169 180 172 169 178 193 183 186 184 193 191 182 183 184 180 176 175 164 165 168 160 159 163 155 134 140 121 113 108 105
355 345 335 308 300 237 197 187 196 198 211 203 183 162 170 202 180 177 188 186 187 194 180 187 186 184 189 183 179 182 179 169 167 164 162 165 165 151 148 153 144 130 129
345 356 348 343 300 262 211 189 194 201 194 197 185 162 180 202 178 188 180 198 173 191 189 187 189 187 188 186 185 184 183 177 173 170 163 166 170 164 158 156 161 163 164
2 358 346 342 348 296 232 212 201 202 196 187 169 181 190 199 189 189 188 180 185 184 187 193 192 187 188 191 186 190 192 181 172 176 169 167 170 169 168 166 164 158 161
355 356 5 352 345 339 317 222 203 205 205 196 183 176 183 199 198 198 191 183 179 186 187 190 183 191 189 191 189 194 183 161 182 169 181 176 174 174 176 175 171 168 166
359 3 2 356 343 343 350 358 261 211 215 214 200 187 179 191 194 201 190 186 181 180 177 182 183 185 187 194 199 190 155 166 182 178 180 181 180 180 181 184 181 183 178